,,Stat5,,Stat1,,Stat2,,Stat3,,Stat4,,Wind1,,Wind1,
time,status,PA1M_AVG,status,PR1M_SUM,status,RH1M_AVG,status,SR1M_AVG,status,TA1M_AVG,status,W1dAve1m,status,W1sAve1m,
2001-08-25, 00:00:00,VALID,918.046,VALID,0,VALID,93.29,VALID,0.0169808,VALID,21.2054,VALID,31,VALID,0.594367,
2001-08-25, 00:01:00,VALID,918.046,VALID,0,VALID,93.201,VALID,0.0169808,VALID,21.2089,VALID,29,VALID,0.598818,
2001-08-25, 00:02:00,VALID,918.05,VALID,0,VALID,93.0357,VALID,0.0509425,VALID,21.1796,VALID,21,VALID,0.736762,
2001-08-25, 00:03:00,VALID,918.069,VALID,0,VALID,92.9416,VALID,0.0169808,VALID,21.1473,VALID,22,VALID,0.864926,
2001-08-25, 00:04:00,VALID,918.07,VALID,0,VALID,93.0484,VALID,0.0169808,VALID,21.0986,VALID,16,VALID,0.764323,
2001-08-25, 00:05:00,VALID,918.079,VALID,0,VALID,93.2785,VALID,0.0169808,VALID,21.0606,VALID,13,VALID,0.553248,
2001-08-25, 00:06:00,VALID,918.092,VALID,0,VALID,93.4757,VALID,0.0169808,VALID,21.0347,VALID,13,VALID,0.506334,
2001-08-25, 00:07:00,VALID,918.087,VALID,0,VALID,93.4566,VALID,0,VALID,20.996,VALID,13,VALID,0.861161,
2001-08-25, 00:08:00,VALID,918.069,VALID,0,VALID,93.6028,VALID,0.0679233,VALID,20.954,VALID,16,VALID,0.91246,
2001-08-25, 00:09:00,VALID,918.055,VALID,0,VALID,93.8266,VALID,0,VALID,20.9182,VALID,10,VALID,0.789536,
2001-08-25, 00:10:00,VALID,918.039,VALID,0,VALID,93.9004,VALID,0.0339617,VALID,20.8856,VALID,16,VALID,0.630134,
2001-08-25, 00:11:00,VALID,918.02,VALID,0,VALID,94.025,VALID,0.0169808,VALID,20.8668,VALID,17,VALID,0.782728,
2001-08-25, 00:12:00,VALID,918.012,VALID,0,VALID,94.1165,VALID,0.0339617,VALID,20.8606,VALID,15,VALID,0.498311,
2001-08-25, 00:13:00,VALID,918.007,VALID,0,VALID,94.1827,VALID,0.0339617,VALID,20.8476,VALID,15,VALID,0.407689,
2001-08-25, 00:14:00,VALID,917.985,VALID,0,VALID,94.2551,VALID,0.0169808,VALID,20.8277,VALID,2,VALID,0.492622,
2001-08-25, 00:15:00,VALID,917.965,VALID,0,VALID,94.2793,VALID,-0.0679233,VALID,20.829,VALID,4,VALID,0.81435,
2001-08-25, 00:16:00,VALID,917.957,VALID,0,VALID,94.3035,VALID,-0.0679233,VALID,20.8102,VALID,7,VALID,0.451014,
2001-08-25, 00:17:00,VALID,917.933,VALID,0,VALID,94.4255,VALID,-0.101885,VALID,20.7978,VALID,3,VALID,0.494945,
2001-08-25, 00:18:00,VALID,917.936,VALID,0,VALID,94.4713,VALID,-0.0679233,VALID,20.7709,VALID,354,VALID,0.591283,
2001-08-25, 00:19:00,VALID,917.908,VALID,0,VALID,94.5514,VALID,-0.0849042,VALID,20.7781,VALID,356,VALID,0.570101,
2001-08-25, 00:20:00,VALID,917.887,VALID,0,VALID,94.6354,VALID,-0.101885,VALID,20.7717,VALID,350,VALID,0.70477,
2001-08-25, 00:21:00,VALID,917.854,VALID,0,VALID,94.7434,VALID,-0.0849042,VALID,20.762,VALID,347,VALID,0.655828,
2001-08-25, 00:22:00,VALID,917.825,VALID,0,VALID,94.7701,VALID,-0.0849042,VALID,20.7717,VALID,351,VALID,0.5375,
2001-08-25, 00:23:00,VALID,917.784,VALID,0,VALID,94.6913,VALID,-0.0849042,VALID,20.7717,VALID,326,VALID,0.488181,
2001-08-25, 00:24:00,VALID,917.724,VALID,0,VALID,94.6481,VALID,-0.101885,VALID,20.7617,VALID,324,VALID,0.57197,
2001-08-25, 00:25:00,VALID,917.679,VALID,0,VALID,94.6112,VALID,-0.0679233,VALID,20.7456,VALID,320,VALID,0.475446,
2001-08-25, 00:26:00,VALID,917.628,VALID,0,VALID,94.47,VALID,-0.0849042,VALID,20.7326,VALID,322,VALID,0.373944,
2001-08-25, 00:27:00,VALID,917.57,VALID,0,VALID,94.3607,VALID,-0.0849042,VALID,20.7202,VALID,324,VALID,0.0964949,
2001-08-25, 00:28:00,VALID,917.552,VALID,0,VALID,94.3772,VALID,-0.101885,VALID,20.6979,VALID,324,VALID,0,
2001-08-25, 00:29:00,VALID,917.506,VALID,0,VALID,94.5387,VALID,-0.0679233,VALID,20.6815,VALID,324,VALID,0,
2001-08-25, 00:30:00,VALID,917.471,VALID,0,VALID,94.5591,VALID,0,VALID,20.6672,VALID,340,VALID,0.182155,
2001-08-25, 00:31:00,VALID,917.443,VALID,0,VALID,94.5184,VALID,0,VALID,20.6379,VALID,354,VALID,0.475929,
2001-08-25, 00:32:00,VALID,917.42,VALID,0,VALID,94.5985,VALID,0,VALID,20.6024,VALID,6,VALID,0.616039,
2001-08-25, 00:33:00,VALID,917.408,VALID,0,VALID,94.6697,VALID,0,VALID,20.573,VALID,8,VALID,0.549753,
2001-08-25, 00:34:00,VALID,917.403,VALID,0,VALID,94.7701,VALID,0,VALID,20.5472,VALID,8,VALID,0.460093,
2001-08-25, 00:35:00,VALID,917.379,VALID,0,VALID,94.8032,VALID,0.0169808,VALID,20.5181,VALID,9,VALID,0.412418,
2001-08-25, 00:36:00,VALID,917.37,VALID,0,VALID,94.9037,VALID,0,VALID,20.4931,VALID,9,VALID,0.293497,
2001-08-25, 00:37:00,VALID,917.368,VALID,0,VALID,95.083,VALID,0,VALID,20.4508,VALID,9,VALID,0.19375,
2001-08-25, 00:38:00,VALID,917.351,VALID,0,VALID,95.3754,VALID,0.0339617,VALID,20.4344,VALID,9,VALID,0,
2001-08-25, 00:39:00,VALID,917.364,VALID,0,VALID,95.4594,VALID,0.0169808,VALID,20.4118,VALID,9,VALID,0,
2001-08-25, 00:40:00,VALID,917.369,VALID,0,VALID,95.6018,VALID,0.0169808,VALID,20.4217,VALID,9,VALID,0,
2001-08-25, 00:41:00,VALID,917.374,VALID,0,VALID,95.7556,VALID,0,VALID,20.4349,VALID,346,VALID,0.0477196,
2001-08-25, 00:42:00,VALID,917.376,VALID,0,VALID,96.0265,VALID,0.0509425,VALID,20.4513,VALID,237,VALID,0.421664,
2001-08-25, 00:43:00,VALID,917.381,VALID,0,VALID,96.2592,VALID,0,VALID,20.4449,VALID,234,VALID,0.48972,
2001-08-25, 00:44:00,VALID,917.368,VALID,0,VALID,96.4105,VALID,0,VALID,20.4352,VALID,216,VALID,0.419705,
2001-08-25, 00:45:00,VALID,917.355,VALID,0,VALID,96.441,VALID,-0.0849042,VALID,20.4166,VALID,180,VALID,0.118421,
2001-08-25, 00:46:00,VALID,917.349,VALID,0,VALID,96.4665,VALID,-0.101885,VALID,20.4079,VALID,181,VALID,0.264358,
2001-08-25, 00:47:00,VALID,917.337,VALID,0,VALID,96.4194,VALID,-0.101885,VALID,20.3982,VALID,181,VALID,0.0755974,
2001-08-25, 00:48:00,VALID,917.311,VALID,0,VALID,96.3431,VALID,-0.101885,VALID,20.3818,VALID,181,VALID,0.000411184,
2001-08-25, 00:49:00,VALID,917.306,VALID,0,VALID,96.4652,VALID,-0.0679233,VALID,20.395,VALID,181,VALID,0.0557432,
2001-08-25, 00:50:00,VALID,917.305,VALID,0,VALID,96.525,VALID,-0.101885,VALID,20.398,VALID,181,VALID,0.112459,
2001-08-25, 00:51:00,VALID,917.302,VALID,0,VALID,96.469,VALID,-0.101885,VALID,20.4079,VALID,181,VALID,0.00253378,
2001-08-25, 00:52:00,VALID,917.298,VALID,0,VALID,96.5122,VALID,-0.101885,VALID,20.4144,VALID,181,VALID,0,
2001-08-25, 00:53:00,VALID,917.299,VALID,0,VALID,96.4728,VALID,-0.0679233,VALID,20.427,VALID,181,VALID,0,
2001-08-25, 00:54:00,VALID,917.285,VALID,0,VALID,96.3151,VALID,-0.101885,VALID,20.4206,VALID,181,VALID,0,
2001-08-25, 00:55:00,VALID,917.29,VALID,0,VALID,96.0583,VALID,-0.101885,VALID,20.4079,VALID,181,VALID,0,
2001-08-25, 00:56:00,VALID,917.285,VALID,0,VALID,95.7811,VALID,-0.0679233,VALID,20.3651,VALID,181,VALID,0,
2001-08-25, 00:57:00,VALID,917.295,VALID,0,VALID,95.8103,VALID,-0.0849042,VALID,20.3689,VALID,181,VALID,0,
2001-08-25, 00:58:00,VALID,917.293,VALID,0,VALID,95.8357,VALID,-0.101885,VALID,20.3654,VALID,181,VALID,0,
2001-08-25, 00:59:00,VALID,917.28,VALID,0,VALID,95.7874,VALID,-0.135847,VALID,20.3721,VALID,181,VALID,0,
2001-08-25, 01:00:00,VALID,917.276,VALID,0,VALID,95.7836,VALID,0.0339617,VALID,20.3695,VALID,181,VALID,0.0160362,
2001-08-25, 01:01:00,VALID,917.253,VALID,0,VALID,95.6386,VALID,0.0849042,VALID,20.3954,VALID,181,VALID,0,
2001-08-25, 01:02:00,VALID,917.234,VALID,0,VALID,95.5089,VALID,0.0679233,VALID,20.3825,VALID,181,VALID,0.000919118,
2001-08-25, 01:03:00,VALID,917.22,VALID,0,VALID,95.4161,VALID,0.0849042,VALID,20.4086,VALID,181,VALID,0,
2001-08-25, 01:04:00,VALID,917.175,VALID,0,VALID,95.3589,VALID,0.101885,VALID,20.4013,VALID,181,VALID,0,
2001-08-25, 01:05:00,VALID,917.157,VALID,0,VALID,95.4085,VALID,0.0509425,VALID,20.4279,VALID,181,VALID,0,
2001-08-25, 01:06:00,VALID,917.144,VALID,0,VALID,95.3983,VALID,0.0679233,VALID,20.4444,VALID,181,VALID,0,
2001-08-25, 01:07:00,VALID,917.129,VALID,0,VALID,95.4339,VALID,0.0509425,VALID,20.4568,VALID,181,VALID,0,
2001-08-25, 01:08:00,VALID,917.13,VALID,0,VALID,95.4059,VALID,0.0509425,VALID,20.4901,VALID,181,VALID,0.0328526,
2001-08-25, 01:09:00,VALID,917.15,VALID,0,VALID,95.35,VALID,0.0339617,VALID,20.4796,VALID,181,VALID,0.0151515,
2001-08-25, 01:10:00,VALID,917.154,VALID,0,VALID,95.261,VALID,0.0849042,VALID,20.4761,VALID,181,VALID,0,
2001-08-25, 01:11:00,VALID,917.163,VALID,0,VALID,95.3284,VALID,0.0509425,VALID,20.4826,VALID,181,VALID,0.0565878,
2001-08-25, 01:12:00,VALID,917.173,VALID,0,VALID,95.2152,VALID,0.0679233,VALID,20.4662,VALID,155,VALID,0.283361,
2001-08-25, 01:13:00,VALID,917.177,VALID,0,VALID,95.2928,VALID,0.0679233,VALID,20.4597,VALID,152,VALID,0.292763,
2001-08-25, 01:14:00,VALID,917.183,VALID,0,VALID,95.4136,VALID,0.0849042,VALID,20.4767,VALID,141,VALID,0.305773,
2001-08-25, 01:15:00,VALID,917.203,VALID,0,VALID,95.5178,VALID,-0.0509425,VALID,20.4976,VALID,163,VALID,0.194901,
2001-08-25, 01:16:00,VALID,917.226,VALID,0,VALID,95.4873,VALID,-0.0339617,VALID,20.5135,VALID,163,VALID,0.129223,
2001-08-25, 01:17:00,VALID,917.205,VALID,0,VALID,95.4377,VALID,-0.0339617,VALID,20.5361,VALID,163,VALID,0.00694444,
2001-08-25, 01:18:00,VALID,917.205,VALID,0,VALID,95.425,VALID,-0.0169808,VALID,20.5391,VALID,163,VALID,0.104235,
2001-08-25, 01:19:00,VALID,917.186,VALID,0,VALID,95.3106,VALID,-0.0339617,VALID,20.5619,VALID,167,VALID,0.0760135,
2001-08-25, 01:20:00,VALID,917.163,VALID,0,VALID,95.2686,VALID,0,VALID,20.5743,VALID,167,VALID,0,
2001-08-25, 01:21:00,VALID,917.167,VALID,0,VALID,95.2063,VALID,-0.0169808,VALID,20.6134,VALID,167,VALID,0,
2001-08-25, 01:22:00,VALID,917.144,VALID,0,VALID,95.0028,VALID,-0.0509425,VALID,20.6203,VALID,167,VALID,0,
2001-08-25, 01:23:00,VALID,917.14,VALID,0,VALID,94.849,VALID,-0.0339617,VALID,20.6064,VALID,166,VALID,0,
2001-08-25, 01:24:00,VALID,917.121,VALID,0,VALID,94.676,VALID,0,VALID,20.5935,VALID,156,VALID,0,
2001-08-25, 01:25:00,VALID,917.122,VALID,0,VALID,94.554,VALID,0,VALID,20.591,VALID,144,VALID,0,
2001-08-25, 01:26:00,VALID,917.131,VALID,0,VALID,94.4281,VALID,0,VALID,20.5679,VALID,144,VALID,0,
2001-08-25, 01:27:00,VALID,917.142,VALID,0,VALID,94.3124,VALID,-0.0169808,VALID,20.5391,VALID,144,VALID,0,
2001-08-25, 01:28:00,VALID,917.168,VALID,0,VALID,94.3798,VALID,-0.0169808,VALID,20.5132,VALID,144,VALID,0,
2001-08-25, 01:29:00,VALID,917.173,VALID,0,VALID,94.4332,VALID,-0.0339617,VALID,20.4906,VALID,144,VALID,0,
2001-08-25, 01:30:00,VALID,917.168,VALID,0,VALID,94.5413,VALID,-0.0169808,VALID,20.4516,VALID,144,VALID,0,
2001-08-25, 01:31:00,VALID,917.147,VALID,0,VALID,94.8007,VALID,-0.0339617,VALID,20.4424,VALID,146,VALID,0,
2001-08-25, 01:32:00,VALID,917.127,VALID,0,VALID,94.8998,VALID,-0.0509425,VALID,20.4292,VALID,162,VALID,0,
2001-08-25, 01:33:00,VALID,917.119,VALID,0,VALID,95.0079,VALID,-0.0169808,VALID,20.4362,VALID,162,VALID,0,
2001-08-25, 01:34:00,VALID,917.103,VALID,0,VALID,95.041,VALID,-0.0169808,VALID,20.4228,VALID,160,VALID,0,
2001-08-25, 01:35:00,VALID,917.106,VALID,0,VALID,94.9965,VALID,-0.0339617,VALID,20.4069,VALID,160,VALID,0,
2001-08-25, 01:36:00,VALID,917.089,VALID,0,VALID,94.7879,VALID,-0.0679233,VALID,20.3907,VALID,161,VALID,0,
2001-08-25, 01:37:00,VALID,917.091,VALID,0,VALID,94.4942,VALID,-0.0509425,VALID,20.3549,VALID,164,VALID,0.495313,
2001-08-25, 01:38:00,VALID,917.092,VALID,0,VALID,94.4014,VALID,-0.0169808,VALID,20.2898,VALID,166,VALID,0.556891,
2001-08-25, 01:39:00,VALID,917.11,VALID,0,VALID,94.4917,VALID,-0.0169808,VALID,20.255,VALID,168,VALID,0.449811,
2001-08-25, 01:40:00,VALID,917.117,VALID,0,VALID,94.5387,VALID,-0.0169808,VALID,20.223,VALID,167,VALID,0.210268,
2001-08-25, 01:41:00,VALID,917.125,VALID,0,VALID,94.6341,VALID,0,VALID,20.1807,VALID,145,VALID,0.201436,
2001-08-25, 01:42:00,VALID,917.112,VALID,0,VALID,94.7689,VALID,-0.0679233,VALID,20.1549,VALID,143,VALID,0.0694679,
2001-08-25, 01:43:00,VALID,917.082,VALID,0,VALID,94.8681,VALID,-0.0339617,VALID,20.1482,VALID,156,VALID,0.333882,
2001-08-25, 01:44:00,VALID,917.067,VALID,0,VALID,94.938,VALID,-0.0509425,VALID,20.1189,VALID,175,VALID,0.402344,
2001-08-25, 01:45:00,VALID,917.037,VALID,0,VALID,94.9545,VALID,-0.0849042,VALID,20.0975,VALID,172,VALID,0.58861,
2001-08-25, 01:46:00,VALID,917.005,VALID,0,VALID,95.0003,VALID,-0.101885,VALID,20.0819,VALID,165,VALID,0.577914,
2001-08-25, 01:47:00,VALID,916.99,VALID,0,VALID,95.1745,VALID,-0.0679233,VALID,20.0463,VALID,147,VALID,0.3125,
2001-08-25, 01:48:00,VALID,916.97,VALID,0,VALID,95.1478,VALID,-0.0679233,VALID,20.0232,VALID,148,VALID,0.255962,
2001-08-25, 01:49:00,VALID,916.966,VALID,0,VALID,95.1593,VALID,-0.0679233,VALID,19.9976,VALID,149,VALID,0.153927,
2001-08-25, 01:50:00,VALID,916.972,VALID,0,VALID,95.2699,VALID,-0.101885,VALID,19.9879,VALID,164,VALID,0.197163,
2001-08-25, 01:51:00,VALID,916.995,VALID,0,VALID,95.4187,VALID,-0.0849042,VALID,19.975,VALID,164,VALID,0.375,
2001-08-25, 01:52:00,VALID,917.008,VALID,0,VALID,95.6247,VALID,-0.0679233,VALID,19.9619,VALID,173,VALID,0.43817,
2001-08-25, 01:53:00,VALID,917.022,VALID,0,VALID,95.8345,VALID,-0.0849042,VALID,19.976,VALID,179,VALID,0.6877,
2001-08-25, 01:54:00,VALID,917.032,VALID,0,VALID,96.1295,VALID,-0.0679233,VALID,19.9753,VALID,169,VALID,0.584517,
2001-08-25, 01:55:00,VALID,917.027,VALID,0,VALID,96.2605,VALID,-0.0679233,VALID,19.9783,VALID,157,VALID,0.489509,
2001-08-25, 01:56:00,VALID,917.024,VALID,0,VALID,96.4741,VALID,-0.0509425,VALID,19.9845,VALID,138,VALID,0.290118,
2001-08-25, 01:57:00,VALID,917.009,VALID,0,VALID,96.5326,VALID,-0.0509425,VALID,19.9912,VALID,149,VALID,0.374789,
2001-08-25, 01:58:00,VALID,917.005,VALID,0,VALID,96.6483,VALID,-0.0849042,VALID,20.0044,VALID,153,VALID,0.353002,
2001-08-25, 01:59:00,VALID,916.982,VALID,0,VALID,96.7475,VALID,-0.0849042,VALID,20.0168,VALID,162,VALID,0.420356,
2001-08-25, 02:00:00,VALID,916.99,VALID,0,VALID,96.8441,VALID,-0.0679233,VALID,20.0364,VALID,172,VALID,0.384046,
2001-08-25, 02:01:00,VALID,916.966,VALID,0,VALID,96.9192,VALID,-0.0849042,VALID,20.0466,VALID,166,VALID,0.0751689,
2001-08-25, 02:02:00,VALID,916.961,VALID,0,VALID,96.8556,VALID,-0.0679233,VALID,20.0593,VALID,146,VALID,0.156939,
2001-08-25, 02:03:00,VALID,916.935,VALID,0,VALID,96.7958,VALID,-0.0339617,VALID,20.0558,VALID,111,VALID,0.357936,
2001-08-25, 02:04:00,VALID,916.931,VALID,0,VALID,96.7729,VALID,-0.118866,VALID,20.0563,VALID,97,VALID,0.284628,
2001-08-25, 02:05:00,VALID,916.944,VALID,0,VALID,96.6458,VALID,-0.101885,VALID,20.0334,VALID,65,VALID,0.282278,
2001-08-25, 02:06:00,VALID,916.946,VALID,0,VALID,96.3507,VALID,-0.0849042,VALID,19.9852,VALID,38,VALID,0.464738,
2001-08-25, 02:07:00,VALID,916.948,VALID,0,VALID,96.0545,VALID,-0.101885,VALID,19.9137,VALID,35,VALID,0.460268,
2001-08-25, 02:08:00,VALID,916.952,VALID,0,VALID,96.1562,VALID,-0.0679233,VALID,19.8719,VALID,35,VALID,0.485777,
2001-08-25, 02:09:00,VALID,916.968,VALID,0,VALID,96.3775,VALID,-0.101885,VALID,19.8595,VALID,35,VALID,0.168561,
2001-08-25, 02:10:00,VALID,916.978,VALID,0,VALID,96.6076,VALID,-0.0849042,VALID,19.8627,VALID,35,VALID,0.0595982,
2001-08-25, 02:11:00,VALID,916.992,VALID,0,VALID,96.7996,VALID,-0.101885,VALID,19.8719,VALID,42,VALID,0.0709459,
2001-08-25, 02:12:00,VALID,916.998,VALID,0,VALID,96.942,VALID,-0.101885,VALID,19.8915,VALID,108,VALID,0.195313,
2001-08-25, 02:13:00,VALID,917.012,VALID,0,VALID,97.0768,VALID,-0.101885,VALID,19.9238,VALID,130,VALID,0.367188,
2001-08-25, 02:14:00,VALID,917.028,VALID,0,VALID,97.2523,VALID,-0.0849042,VALID,19.9596,VALID,132,VALID,0.421658,
2001-08-25, 02:15:00,VALID,917.049,VALID,0,VALID,97.3248,VALID,0.0169808,VALID,19.9738,VALID,123,VALID,0.437706,
2001-08-25, 02:16:00,VALID,917.043,VALID,0,VALID,97.4927,VALID,0.0339617,VALID,20.023,VALID,111,VALID,0.701436,
2001-08-25, 02:17:00,VALID,917.041,VALID,0,VALID,97.658,VALID,0.0169808,VALID,20.0679,VALID,99,VALID,0.58341,
2001-08-25, 02:18:00,VALID,917.019,VALID,0,VALID,97.7254,VALID,0,VALID,20.1062,VALID,91,VALID,0.92866,
2001-08-25, 02:19:00,VALID,917.006,VALID,0,VALID,97.5588,VALID,0.0169808,VALID,20.1293,VALID,72,VALID,0.712627,
2001-08-25, 02:20:00,VALID,916.974,VALID,0,VALID,97.3858,VALID,0.0339617,VALID,20.1161,VALID,72,VALID,0.483758,
2001-08-25, 02:21:00,VALID,916.941,VALID,0,VALID,97.2485,VALID,0.0169808,VALID,20.0997,VALID,81,VALID,0.534206,
2001-08-25, 02:22:00,VALID,916.919,VALID,0,VALID,97.3057,VALID,0.0339617,VALID,20.1159,VALID,91,VALID,0.659598,
2001-08-25, 02:23:00,VALID,916.9,VALID,0,VALID,97.1341,VALID,0.0169808,VALID,20.1293,VALID,68,VALID,0.579928,
2001-08-25, 02:24:00,VALID,916.889,VALID,0,VALID,97.1112,VALID,0.0169808,VALID,20.1065,VALID,68,VALID,0.746449,
2001-08-25, 02:25:00,VALID,916.89,VALID,0,VALID,97.101,VALID,0.0169808,VALID,20.1191,VALID,63,VALID,0.576563,
2001-08-25, 02:26:00,VALID,916.869,VALID,0,VALID,97.0997,VALID,0.0509425,VALID,20.1156,VALID,83,VALID,0.558699,
2001-08-25, 02:27:00,VALID,916.873,VALID,0,VALID,97.1646,VALID,0.0339617,VALID,20.1318,VALID,95,VALID,0.34375,
2001-08-25, 02:28:00,VALID,916.852,VALID,0,VALID,97.1557,VALID,0,VALID,20.1447,VALID,72,VALID,0.240954,
2001-08-25, 02:29:00,VALID,916.841,VALID,0,VALID,97.087,VALID,0.0339617,VALID,20.1517,VALID,50,VALID,0.398872,
2001-08-25, 02:30:00,VALID,916.814,VALID,0,VALID,97.0234,VALID,0,VALID,20.1646,VALID,39,VALID,0.370683,
2001-08-25, 02:31:00,VALID,916.809,VALID,0,VALID,96.9802,VALID,0.0169808,VALID,20.1512,VALID,34,VALID,0.580025,
2001-08-25, 02:32:00,VALID,916.813,VALID,0,VALID,96.8123,VALID,0,VALID,20.1417,VALID,26,VALID,0.754366,
2001-08-25, 02:33:00,VALID,916.796,VALID,0,VALID,96.5809,VALID,0,VALID,20.1199,VALID,17,VALID,0.985197,
2001-08-25, 02:34:00,VALID,916.798,VALID,0,VALID,96.427,VALID,0,VALID,20.0809,VALID,12,VALID,1.04497,
2001-08-25, 02:35:00,VALID,916.803,VALID,0,VALID,96.4181,VALID,0,VALID,20.0486,VALID,15,VALID,1.09437,
2001-08-25, 02:36:00,VALID,916.801,VALID,0,VALID,96.7195,VALID,0,VALID,20.0421,VALID,9,VALID,1.25253,
2001-08-25, 02:37:00,VALID,916.829,VALID,0,VALID,96.8721,VALID,0,VALID,20.0518,VALID,10,VALID,0.920982,
2001-08-25, 02:38:00,VALID,916.828,VALID,0,VALID,96.764,VALID,0,VALID,20.0361,VALID,360,VALID,0.695713,
2001-08-25, 02:39:00,VALID,916.84,VALID,0,VALID,96.8098,VALID,0.0169808,VALID,20.0225,VALID,332,VALID,0.68821,
2001-08-25, 02:40:00,VALID,916.869,VALID,0,VALID,96.9039,VALID,-0.0169808,VALID,20.0332,VALID,326,VALID,0.73817,
2001-08-25, 02:41:00,VALID,916.892,VALID,0,VALID,96.9166,VALID,0.0169808,VALID,19.98,VALID,340,VALID,0.383446,
2001-08-25, 02:42:00,VALID,916.906,VALID,0,VALID,97.0336,VALID,0.0339617,VALID,19.9937,VALID,335,VALID,0.451647,
2001-08-25, 02:43:00,VALID,916.925,VALID,0,VALID,97.1417,VALID,0.0509425,VALID,19.9872,VALID,329,VALID,0.328536,
2001-08-25, 02:44:00,VALID,916.917,VALID,0,VALID,97.1849,VALID,0.0169808,VALID,19.9835,VALID,24,VALID,0.331163,
2001-08-25, 02:45:00,VALID,916.928,VALID,0,VALID,97.148,VALID,0,VALID,19.9748,VALID,30,VALID,0.361431,
2001-08-25, 02:46:00,VALID,916.928,VALID,0,VALID,97.1519,VALID,-0.0339617,VALID,19.9621,VALID,29,VALID,0.433699,
2001-08-25, 02:47:00,VALID,916.935,VALID,0,VALID,97.2104,VALID,-0.0339617,VALID,19.9626,VALID,26,VALID,0.673943,
2001-08-25, 02:48:00,VALID,916.954,VALID,0,VALID,97.2243,VALID,0,VALID,19.946,VALID,27,VALID,0.497944,
2001-08-25, 02:49:00,VALID,916.971,VALID,0,VALID,97.176,VALID,-0.0169808,VALID,19.933,VALID,44,VALID,0.58087,
2001-08-25, 02:50:00,VALID,916.988,VALID,0,VALID,97.1989,VALID,-0.0169808,VALID,19.9199,VALID,43,VALID,0.783923,
2001-08-25, 02:51:00,VALID,917.007,VALID,0,VALID,97.2549,VALID,-0.0509425,VALID,19.9204,VALID,40,VALID,0.748311,
2001-08-25, 02:52:00,VALID,917.009,VALID,0,VALID,97.1519,VALID,-0.0169808,VALID,19.9072,VALID,38,VALID,0.638616,
2001-08-25, 02:53:00,VALID,917.024,VALID,0,VALID,97.0896,VALID,-0.0509425,VALID,19.8806,VALID,39,VALID,0.588341,
2001-08-25, 02:54:00,VALID,917.034,VALID,0,VALID,97.0005,VALID,0,VALID,19.862,VALID,39,VALID,0.606061,
2001-08-25, 02:55:00,VALID,917.056,VALID,0,VALID,96.9026,VALID,-0.0169808,VALID,19.8235,VALID,28,VALID,0.747321,
2001-08-25, 02:56:00,VALID,917.058,VALID,0,VALID,97.1086,VALID,0,VALID,19.8073,VALID,22,VALID,0.82897,
2001-08-25, 02:57:00,VALID,917.066,VALID,0,VALID,97.2828,VALID,-0.0339617,VALID,19.784,VALID,20,VALID,0.736275,
2001-08-25, 02:58:00,VALID,917.058,VALID,0,VALID,97.3337,VALID,0,VALID,19.7681,VALID,346,VALID,0.820313,
2001-08-25, 02:59:00,VALID,917.045,VALID,0,VALID,97.3973,VALID,-0.0339617,VALID,19.7417,VALID,355,VALID,0.738932,
2001-08-25, 03:00:00,VALID,917.034,VALID,0,VALID,97.471,VALID,0,VALID,19.7131,VALID,351,VALID,0.662418,
2001-08-25, 03:01:00,VALID,917.026,VALID,0,VALID,97.5842,VALID,-0.0169808,VALID,19.6972,VALID,353,VALID,0.318834,
2001-08-25, 03:02:00,VALID,917.018,VALID,0,VALID,97.7393,VALID,0.0169808,VALID,19.7069,VALID,354,VALID,0.549403,
2001-08-25, 03:03:00,VALID,917.018,VALID,0,VALID,97.9034,VALID,-0.0169808,VALID,19.733,VALID,355,VALID,0.747122,
2001-08-25, 03:04:00,VALID,917.024,VALID,0,VALID,97.9695,VALID,-0.0509425,VALID,19.7134,VALID,13,VALID,1.13851,
2001-08-25, 03:05:00,VALID,917.018,VALID,0,VALID,98.0407,VALID,-0.0339617,VALID,19.7131,VALID,10,VALID,0.745271,
2001-08-25, 03:06:00,VALID,917.028,VALID,0,VALID,98.0547,VALID,0,VALID,19.6905,VALID,7,VALID,0.588682,
2001-08-25, 03:07:00,VALID,917.044,VALID,0,VALID,98.0789,VALID,-0.0339617,VALID,19.6744,VALID,11,VALID,0.564286,
2001-08-25, 03:08:00,VALID,917.038,VALID,0,VALID,98.1958,VALID,-0.0169808,VALID,19.7044,VALID,7,VALID,0.959135,
2001-08-25, 03:09:00,VALID,917.039,VALID,0,VALID,98.2785,VALID,-0.0169808,VALID,19.7231,VALID,5,VALID,0.460938,
2001-08-25, 03:10:00,VALID,917.014,VALID,0,VALID,98.3077,VALID,-0.0169808,VALID,19.7134,VALID,359,VALID,0.723884,
2001-08-25, 03:11:00,VALID,916.983,VALID,0,VALID,98.3141,VALID,-0.0339617,VALID,19.7099,VALID,355,VALID,0.820101,
2001-08-25, 03:12:00,VALID,916.955,VALID,0,VALID,98.3942,VALID,0,VALID,19.7397,VALID,342,VALID,1.08763,
2001-08-25, 03:13:00,VALID,916.902,VALID,0,VALID,98.4247,VALID,-0.0169808,VALID,19.7499,VALID,11,VALID,0.543997,
2001-08-25, 03:14:00,VALID,916.872,VALID,0,VALID,98.3523,VALID,0,VALID,19.7005,VALID,345,VALID,0.904297,
2001-08-25, 03:15:00,VALID,916.849,VALID,0,VALID,98.4578,VALID,0,VALID,19.7164,VALID,332,VALID,1.22245,
2001-08-25, 03:16:00,VALID,916.82,VALID,0,VALID,98.5494,VALID,0,VALID,19.7586,VALID,334,VALID,0.865921,
2001-08-25, 03:17:00,VALID,916.825,VALID,0,VALID,98.585,VALID,-0.0169808,VALID,19.7815,VALID,311,VALID,0.839614,
2001-08-25, 03:18:00,VALID,916.844,VALID,0,VALID,98.5722,VALID,-0.0169808,VALID,19.7718,VALID,315,VALID,0.603207,
2001-08-25, 03:19:00,VALID,916.867,VALID,0,VALID,98.6078,VALID,0,VALID,19.7976,VALID,292,VALID,0.818412,
2001-08-25, 03:20:00,VALID,916.872,VALID,0,VALID,98.5926,VALID,0,VALID,19.7777,VALID,293,VALID,0.352796,
2001-08-25, 03:21:00,VALID,916.882,VALID,0,VALID,98.5659,VALID,-0.0169808,VALID,19.7454,VALID,306,VALID,0.228252,
2001-08-25, 03:22:00,VALID,916.884,VALID,0,VALID,98.5443,VALID,0,VALID,19.7295,VALID,338,VALID,0.275893,
2001-08-25, 03:23:00,VALID,916.883,VALID,0,VALID,98.5544,VALID,-0.0169808,VALID,19.7226,VALID,291,VALID,0.342748,
2001-08-25, 03:24:00,VALID,916.895,VALID,0,VALID,98.5519,VALID,0,VALID,19.7196,VALID,276,VALID,0.301136,
2001-08-25, 03:25:00,VALID,916.902,VALID,0,VALID,98.5888,VALID,0,VALID,19.7231,VALID,272,VALID,0.134152,
2001-08-25, 03:26:00,VALID,916.931,VALID,0,VALID,98.6066,VALID,-0.0169808,VALID,19.7295,VALID,274,VALID,0.0926943,
2001-08-25, 03:27:00,VALID,916.955,VALID,0,VALID,98.6002,VALID,0.0169808,VALID,19.7328,VALID,276,VALID,0.000844595,
2001-08-25, 03:28:00,VALID,916.99,VALID,0,VALID,98.618,VALID,-0.0169808,VALID,19.7261,VALID,318,VALID,0.189762,
2001-08-25, 03:29:00,VALID,917.012,VALID,0,VALID,98.5926,VALID,0,VALID,19.7204,VALID,292,VALID,0.478733,
2001-08-25, 03:30:00,VALID,917.036,VALID,0,VALID,98.5239,VALID,-0.0169808,VALID,19.6719,VALID,245,VALID,0.660156,
2001-08-25, 03:31:00,VALID,917.055,VALID,0,VALID,98.5379,VALID,-0.0169808,VALID,19.6329,VALID,242,VALID,0.260135,
2001-08-25, 03:32:00,VALID,917.081,VALID,0,VALID,98.4972,VALID,-0.0169808,VALID,19.6143,VALID,242,VALID,0,
2001-08-25, 03:33:00,VALID,917.089,VALID,0,VALID,98.4451,VALID,-0.0339617,VALID,19.539,VALID,242,VALID,0,
2001-08-25, 03:34:00,VALID,917.107,VALID,0,VALID,98.5048,VALID,-0.0339617,VALID,19.5231,VALID,313,VALID,0.337627,